KE7YUP Weather Reports


Display with metric or nautical units.
time (UTC)temp
F
wind
direction
speed
MPH
gust
MPH
rain 1hr
in
rain 24hr
in
rain mn
in
humidity
%
barometer
mb
20260505124835 52 250 4.0 7.0 0.00 0.00 0.00 73 1011.3
20260505123815 52 244 5.0 7.0 0.00 0.00 0.00 75 1011.1
20260505122816 52 215 1.0 2.0 0.00 0.00 0.00 75 1011.1
20260505121815 52 215 0.0 1.0 0.00 0.00 0.00 75 1011.1
20260505120815 52 215 1.0 2.0 0.00 0.00 0.00 74 1011.1
20260505115815 52 182 1.0 3.0 0.00 0.00 0.00 74 1011.3
20260505114815 52 154 7.0 12.0 0.00 0.00 0.00 73 1011.3
20260505113815 52 141 2.0 5.0 0.00 0.00 0.00 72 1011.1
20260505112815 52 263 3.0 6.0 0.00 0.00 0.00 72 1010.9
20260505111837 52 269 1.0 3.0 0.00 0.00 0.00 71 1010.8
20260505110837 52 269 1.0 1.0 0.00 0.00 0.00 70 1010.7
20260505101817 53 269 0.0 2.0 0.00 0.00 0.00 65 1011.1
20260505100817 53 269 1.0 4.0 0.00 0.00 0.00 64 1011.1
20260505095817 53 245 4.0 7.0 0.00 0.00 0.00 63 1010.8
20260505094817 52 148 1.0 2.0 0.00 0.00 0.00 67 1010.9
20260505093817 52 148 2.0 3.0 0.00 0.00 0.00 68 1010.7
20260505092815 52 148 0.0 1.0 0.00 0.00 0.00 69 1010.7
20260505091817 52 0.0 0.0 0.00 0.00 0.00 70 1010.7
20260505090816 53 0.0 0.0 0.00 0.00 0.00 70 1010.8
20260505085816 53 148 0.0 4.0 0.00 0.00 0.00 70 1011.5
20260505084817 53 144 2.0 7.0 0.00 0.00 0.00 71 1011.6
20260505083817 53 124 2.0 4.0 0.00 0.00 0.00 71 1011.6
20260505082817 53 139 1.0 4.0 0.00 0.00 0.00 71 1011.7
20260505081816 53 134 2.0 4.0 0.00 0.00 0.00 70 1011.4
20260505080817 53 125 2.0 3.0 0.00 0.00 0.00 70 1011.5
20260505075817 53 134 1.0 2.0 0.00 0.00 0.00 70 1012.1
20260505074816 54 160 3.0 5.0 0.00 0.00 0.00 69 1012.1
20260505073817 54 129 3.0 7.0 0.00 0.00 0.00 68 1012.3
20260505072818 54 156 5.0 7.0 0.00 0.00 0.00 64 1012.8
20260505071816 54 175 2.0 4.0 0.00 0.00 0.00 63 1012.4
20260505070816 53 142 5.0 10.0 0.00 0.00 0.00 65 1012.5
20260505065817 53 164 1.0 4.0 0.00 0.00 0.00 66 1012.5
20260505064816 53 239 1.0 2.0 0.00 0.00 0.00 66 1012.4
20260505063816 53 199 4.0 6.0 0.00 0.00 0.00 65 1012.4
20260505062816 53 219 2.0 10.0 0.00 0.00 0.00 64 1011.9
20260505061816 53 190 5.0 11.0 0.00 0.00 0.00 64 1012.0
20260505060836 53 194 8.0 14.0 0.00 0.00 0.00 64 1012.1
20260505055815 53 235 10.0 14.0 0.00 0.00 0.00 65 1011.7
20260505054816 53 200 11.0 18.0 0.00 0.00 0.00 67 1011.6
20260505053816 53 203 11.0 17.0 0.00 0.00 0.00 69 1011.8
20260505052815 53 201 9.0 16.0 0.00 0.00 0.00 69 1011.8
20260505051856 53 209 8.0 14.0 0.00 0.00 0.00 69 1011.7
20260505050815 54 213 10.0 19.0 0.00 0.00 0.00 69 1011.9
20260505040815 57 233 8.0 16.0 0.00 0.00 0.00 57 1011.0
20260505035815 58 194 8.0 13.0 0.00 0.00 0.00 52 1010.9
20260505034815 59 194 6.0 10.0 0.00 0.00 0.00 48 1010.6
20260505033815 59 185 3.0 7.0 0.00 0.00 0.00 47 1010.3
20260505032815 59 240 5.0 9.0 0.00 0.00 0.00 47 1010.0
20260505031815 60 215 4.0 7.0 0.00 0.00 0.00 47 1009.9
20260505030815 60 245 3.0 8.0 0.00 0.00 0.00 49 1010.1
20260505025815 60 214 6.0 10.0 0.00 0.00 0.00 52 1009.5
20260505024815 61 241 10.0 17.0 0.00 0.00 0.00 46 1009.7
20260505023815 61 177 3.0 6.0 0.00 0.00 0.00 44 1009.4
20260505022815 62 158 3.0 8.0 0.00 0.00 0.00 45 1008.9
20260505021835 62 130 4.0 7.0 0.00 0.00 0.00 45 1008.9
20260505020835 62 157 7.0 9.0 0.00 0.00 0.00 45 1008.9
20260505015815 62 144 7.0 12.0 0.00 0.00 0.00 45 1008.7
20260505014815 62 127 4.0 10.0 0.00 0.00 0.00 47 1008.9
20260505013815 63 136 7.0 14.0 0.00 0.00 0.00 47 1008.8
20260505012815 63 131 7.0 12.0 0.00 0.00 0.00 45 1008.8
20260505011817 65 106 10.0 13.0 0.00 0.00 0.00 42 1009.0
20260505010835 66 174 4.0 7.0 0.00 0.00 0.00 35 1008.7
20260505005817 66 170 2.0 4.0 0.00 0.00 0.00 33 1008.7
20260505004817 66 165 0.0 5.0 0.00 0.00 0.00 33 1008.7
20260505003857 66 158 5.0 8.0 0.00 0.00 0.00 33 1008.7
20260505002817 66 167 5.0 11.0 0.00 0.00 0.00 33 1008.5
20260505001815 67 111 1.0 6.0 0.00 0.00 0.00 31 1008.8
20260505000817 67 67 4.0 8.0 0.00 0.00 0.00 32 1008.9
20260504235817 67 56 5.0 8.0 0.00 0.00 0.00 33 1008.9
20260504234817 68 114 1.0 3.0 0.00 0.00 0.00 29 1009.2
20260504233816 67 257 2.0 7.0 0.00 0.00 0.00 31 1008.8
20260504232817 66 324 1.0 2.0 0.00 0.00 0.00 32 1008.7
20260504231816 65 353 6.0 8.0 0.00 0.00 0.00 35 1008.6
20260504230817 65 321 8.0 11.0 0.00 0.00 0.00 36 1008.5
20260504225816 65 288 5.0 11.0 0.00 0.00 0.00 35 1008.9
20260504224816 64 251 12.0 16.0 0.00 0.00 0.00 36 1009.1
20260504223816 65 283 13.0 16.0 0.00 0.00 0.00 37 1009.1
20260504222817 65 291 10.0 17.0 0.00 0.00 0.00 37 1009.1
20260504221816 66 288 12.0 17.0 0.00 0.00 0.00 39 1009.4
20260504220816 67 263 11.0 18.0 0.00 0.00 0.00 37 1009.3
20260504215817 66 290 10.0 16.0 0.00 0.00 0.00 38 1008.9
20260504214816 66 291 11.0 15.0 0.00 0.00 0.00 40 1009.1
20260504213816 64 279 7.0 14.0 0.00 0.00 0.00 39 1008.9
20260504212817 64 277 7.0 11.0 0.00 0.00 0.00 41 1009.3
20260504211817 64 263 14.0 18.0 0.00 0.00 0.00 39 1009.5
20260504210836 64 279 8.0 14.0 0.00 0.00 0.00 40 1009.5
20260504205816 65 305 12.0 17.0 0.00 0.00 0.00 41 1009.6
20260504204816 65 266 10.0 17.0 0.00 0.00 0.00 37 1009.5
20260504203817 68 281 8.0 16.0 0.00 0.00 0.00 34 1010.1
20260504202817 68 162 6.0 9.0 0.00 0.00 0.00 34 1010.2
20260504201837 68 147 5.0 11.0 0.00 0.00 0.00 33 1010.1
20260504200816 68 100 9.0 14.0 0.00 0.00 0.00 33 1010.0
20260504195816 69 141 12.0 15.0 0.00 0.00 0.00 31 1009.7
20260504194816 69 120 12.0 16.0 0.00 0.00 0.00 32 1009.9
20260504193837 69 141 7.0 14.0 0.00 0.00 0.00 32 1009.9
20260504192816 69 125 11.0 16.0 0.00 0.00 0.00 32 1010.7
20260504191816 69 99 9.0 14.0 0.00 0.00 0.00 33 1010.8
20260504190816 70 119 8.0 15.0 0.00 0.00 0.00 32 1010.8
20260504185816 69 126 10.0 14.0 0.00 0.00 0.00 34 1011.1
20260504184816 69 122 8.0 15.0 0.00 0.00 0.00 34 1011.1
20260504183837 69 99 7.0 10.0 0.00 0.00 0.00 34 1011.3
20260504182816 69 106 4.0 12.0 0.00 0.00 0.00 34 1011.0
20260504181836 68 88 7.0 10.0 0.00 0.00 0.00 35 1011.1
20260504180836 67 137 6.0 10.0 0.00 0.00 0.00 36 1011.4
20260504175816 67 95 5.0 13.0 0.00 0.00 0.00 38 1012.2
20260504174816 67 88 9.0 14.0 0.00 0.00 0.00 37 1012.4
20260504173816 67 82 6.0 14.0 0.00 0.00 0.00 38 1012.4
20260504172816 66 86 11.0 14.0 0.00 0.00 0.00 38 1013.0
20260504171836 66 98 7.0 11.0 0.00 0.00 0.00 37 1013.0
20260504170837 66 130 8.0 12.0 0.00 0.00 0.00 38 1013.1
20260504150815 62 137 3.0 5.0 0.00 0.00 0.00 45 1014.0
20260504140815 57 327 1.0 3.0 0.00 0.00 0.00 54 1013.3